Home > Weather > Oberpullendorf > Past weeks

Flag for Austria Weather for the Past 2 Weeks in Oberpullendorf, Burgenland, Austria

Now
55 °F

Cool.


Feels Like: 55 °F
Forecast: 47 / 67 °F
Wind: 5 mph from North

Location: Eisenstadt

Current Time: May 6, 2016 at 12:49:48 AM

Latest Report: May 6, 2016 at 12:00 AM


Visibility: N/A

Pressure: 30.18 "Hg

Humidity: 76%

Dew Point: 48 °F

Location of OberpullendorfLocation

Historic Weather in Oberpullendorf — Graph

°F

Oberpullendorf Temperature Yesterday

Maximum temperature yesterday: 63 °F (at 6:00 PM)
Minimum temperature yesterday: 47 °F (at 2:00 AM)
Average temperature yesterday: 54 °F

High & Low Weather Summary for the Past Weeks

 TemperatureHumidityPressure
High69 °F (Apr 22, 3:00 PM)93% (May 2, 12:00 AM)30.39 "Hg (May 2, 12:00 AM)
Low33 °F (Apr 26, 4:00 AM)29% (Apr 26, 5:00 PM)29.59 "Hg (Apr 24, 12:00 AM)
Average52 °F64%29.98 "Hg
* Reported Apr 20 11:00 PM — May 5 11:00 PM, Oberpullendorf, Weather by CustomWeather, © 2016

Note: Actual official high and low records may vary slightly from our data, if they occured in-between our weather recording intervals... More about our weather records

Advertising

Oberpullendorf Weather History for the Previous 24 Hours

Scroll right to see more
 ConditionsComfort  
Time TempWeatherWind HumidityBarometerVisibility
11:00 PM
Thu, May 5
56 °FClear.2 mph76%30.19 "Hg9 mi
10:00 PM56 °FCool.2 mph77%30.18 "HgN/A
9:00 PM56 °FCool.1 mph76%30.18 "HgN/A
8:00 PM60 °FPassing clouds.5 mph66%30.16 "Hg9 mi
7:00 PM62 °FSunny.5 mph63%30.16 "Hg9 mi
6:00 PM63 °FMild.6 mph62%30.17 "HgN/A
5:00 PM62 °FPassing clouds.7 mph61%30.18 "Hg19 mi
4:00 PM61 °FCool.7 mph63%30.19 "HgN/A
3:00 PM60 °FCool.7 mph62%30.21 "HgN/A
2:00 PM58 °FPassing clouds.5 mph63%30.23 "Hg6 mi
1:00 PM57 °FCool.6 mph68%30.24 "HgN/A
12:00 PM56 °FCool.6 mph70%30.25 "HgN/A
11:00 AM53 °FOvercast.7 mph76%30.25 "Hg6 mi
10:00 AM51 °FCool.7 mph78%30.26 "HgN/A
9:00 AM50 °FCool.6 mph77%30.27 "HgN/A
8:00 AM49 °FOvercast.8 mph79%30.26 "Hg6 mi
7:00 AM48 °FOvercast.8 mph80%30.24 "Hg6 mi
6:00 AM48 °FOvercast.9 mph81%30.23 "Hg6 mi
5:00 AM48 °FOvercast.9 mph79%30.24 "Hg6 mi
4:00 AM48 °FOvercast.9 mph79%30.22 "Hg6 mi
3:00 AM48 °FCool.10 mph79%30.23 "HgN/A
2:00 AM47 °FLight rain. Overcast.10 mph82%30.23 "Hg6 mi
1:00 AM48 °FCool.10 mph79%30.24 "HgN/A
12:00 AM49 °FCool.12 mph76%30.24 "HgN/A
Weather by CustomWeather, © 2016

See weather overviewHow to use our weather pages